Location: Asheville, NC
(35.6000°N, 82.5500°W)
Time: 01:50:40
(UTC-05:00)

Vanguard 3 - Pass Details

Date: 12 February 2018
Orbit: 508 x 3264 km, 33.3° (Epoch: 21 February)

Event Time Altitude Azimuth Distance (km) Brightness Sun altitude
Rises 18:21:16 0° 242° (WSW) 2,593 11.8 -3.2°
Reaches altitude 10° 18:23:23 10° 234° (SW) 1,714 10.2 -3.6°
Maximum altitude 18:26:52 42° 162° (SSE) 804 7.2 -4.3°
Drops below altitude 10° 18:31:17 10° 91° (E) 2,166 8.7 -5.2°
Enters shadow 18:32:26 - 88° (E) 2,637 9.1 -5.4°
Sets 18:34:17 0° 85° (E) 3,399 - -5.8°
